"Sample Date","Sample Time","Sensor Name","Sample Value","Units","Flow Rate","Sample Interval","Sample Volume","Laser Status","Number Channels","Micron Size 0","Counts/Channel 0","Micron Size 1","Counts/Channel 1","Micron Size 2","Counts/Channel 2","Micron Size 3","Counts/Channel 3","Micron Size 4","Counts/Channel 4","Micron Size 5","Counts/Channel 5","Micron Size 6","Counts/Channel 6","Micron Size 7","Counts/Channel 7","Micron Size 8","Counts/Channel 8","Micron Size 9","Counts/Channel 9","Micron Size 10","Counts/Channel 10","Micron Size 11","Counts/Channel 11","Micron Size 12","Counts/Channel 12","Micron Size 13","Counts/Channel 13","Micron Size 14","Counts/Channel 14","Micron Size 15","Counts/Channel 15","Micron Size 16","Counts/Channel 16","Micron Size 17","Counts/Channel 17","Micron Size 18","Counts/Channel 18","Micron Size 19","Counts/Channel 19","Micron Size 20","Counts/Channel 20","Micron Size 21","Counts/Channel 21","Micron Size 22","Counts/Channel 22","Micron Size 23","Counts/Channel 23","Micron Size 24","Counts/Channel 24","Micron Size 25","Counts/Channel 25","Micron Size 26","Counts/Channel 26","Micron Size 27","Counts/Channel 27","Micron Size 28","Counts/Channel 28","Micron Size 29","Counts/Channel 29","Micron Size 30","Counts/Channel 30","Micron Size 31","Counts/Channel 31"
"07/04/06","19:00:02","AMMA06",55447.000,"cc",28315.447,6.00,2831.545,1,6,0.100,25699.000,0.200,26132.000,0.300,2733.000,0.500,554.000,1.000,329.000,5.000,0
"07/04/06","19:00:08","AMMA06",55552.000,"cc",28321.908,6.00,2832.191,1,6,0.100,25622.000,0.200,26270.000,0.300,2800.000,0.500,520.000,1.000,339.000,5.000,1.000
"07/04/06","19:00:14","AMMA06",55695.000,"cc",28334.315,6.00,2833.432,1,6,0.100,25640.000,0.200,26535.000,0.300,2611.000,0.500,565.000,1.000,344.000,5.000,0
"07/04/06","19:00:20","AMMA06",55495.000,"cc",28343.670,6.00,2834.367,1,6,0.100,25643.000,0.200,26311.000,0.300,2710.000,0.500,503.000,1.000,328.000,5.000,0
"07/04/06","19:00:26","AMMA06",55837.000,"cc",28246.606,6.00,2824.661,1,6,0.100,25718.000,0.200,26620.000,0.300,2654.000,0.500,563.000,1.000,282.000,5.000,0
"07/04/06","19:00:32","AMMA06",55383.000,"cc",28275.982,6.00,2827.598,1,6,0.100,25740.000,0.200,26073.000,0.300,2689.000,0.500,539.000,1.000,342.000,5.000,0
"07/04/06","19:00:38","AMMA06",55335.000,"cc",28303.383,6.00,2830.338,1,6,0.100,25602.000,0.200,26124.000,0.300,2695.000,0.500,551.000,1.000,363.000,5.000,0
"07/04/06","19:00:44","AMMA06",55466.000,"cc",28319.662,6.00,2831.966,1,6,0.100,25778.000,0.200,26170.000,0.300,2642.000,0.500,552.000,1.000,324.000,5.000,0
"07/04/06","19:00:50","AMMA06",55406.000,"cc",28374.449,6.00,2837.445,1,6,0.100,25543.000,0.200,26367.000,0.300,2674.000,0.500,512.000,1.000,310.000,5.000,0
"07/04/06","19:00:56","AMMA06",55671.000,"cc",28328.785,6.00,2832.879,1,6,0.100,25953.000,0.200,26232.000,0.300,2635.000,0.500,544.000,1.000,307.000,5.000,0
"07/04/06","19:01:02","AMMA06",55259.000,"cc",28281.000,6.00,2828.100,1,6,0.100,25676.000,0.200,26018.000,0.300,2664.000,0.500,550.000,1.000,351.000,5.000,0
"07/04/06","19:01:08","AMMA06",55607.000,"cc",28311.959,6.00,2831.196,1,6,0.100,25666.000,0.200,26511.000,0.300,2546.000,0.500,551.000,1.000,333.000,5.000,0
"07/04/06","19:01:14","AMMA06",55200.000,"cc",28329.967,6.00,2832.997,1,6,0.100,25545.000,0.200,25982.000,0.300,2728.000,0.500,579.000,1.000,366.000,5.000,0
"07/04/06","19:01:20","AMMA06",55175.000,"cc",28303.160,6.00,2830.316,1,6,0.100,25416.000,0.200,26257.000,0.300,2629.000,0.500,509.000,1.000,364.000,5.000,0
"07/04/06","19:01:26","AMMA06",55806.000,"cc",28310.381,6.00,2831.038,1,6,0.100,25733.000,0.200,26479.000,0.300,2665.000,0.500,563.000,1.000,366.000,5.000,0
"07/04/06","19:01:32","AMMA06",55393.000,"cc",28324.285,6.00,2832.429,1,6,0.100,25849.000,0.200,25951.000,0.300,2667.000,0.500,540.000,1.000,386.000,5.000,0
"07/04/06","19:01:38","AMMA06",55454.000,"cc",28266.074,6.00,2826.608,1,6,0.100,25643.000,0.200,26181.000,0.300,2672.000,0.500,576.000,1.000,382.000,5.000,0
"07/04/06","19:01:44","AMMA06",55355.000,"cc",28311.598,6.00,2831.160,1,6,0.100,25242.000,0.200,26572.000,0.300,2695.000,0.500,530.000,1.000,316.000,5.000,0
"07/04/06","19:01:50","AMMA06",55838.000,"cc",28314.551,6.00,2831.455,1,6,0.100,25753.000,0.200,26389.000,0.300,2772.000,0.500,542.000,1.000,382.000,5.000,0
"07/04/06","19:01:56","AMMA06",55653.000,"cc",28356.190,6.00,2835.619,1,6,0.100,25679.000,0.200,26431.000,0.300,2675.000,0.500,503.000,1.000,364.000,5.000,1.000
"07/04/06","19:02:02","AMMA06",55813.000,"cc",28329.549,6.00,2832.955,1,6,0.100,25739.000,0.200,26429.000,0.300,2682.000,0.500,609.000,1.000,354.000,5.000,0
"07/04/06","19:02:08","AMMA06",55516.000,"cc",28318.766,6.00,2831.877,1,6,0.100,25815.000,0.200,26086.000,0.300,2732.000,0.500,534.000,1.000,349.000,5.000,0
"07/04/06","19:02:14","AMMA06",55683.000,"cc",28339.340,6.00,2833.934,1,6,0.100,25734.000,0.200,26331.000,0.300,2766.000,0.500,525.000,1.000,327.000,5.000,0
"07/04/06","19:02:20","AMMA06",55451.000,"cc",28289.516,6.00,2828.952,1,6,0.100,25589.000,0.200,26258.000,0.300,2748.000,0.500,534.000,1.000,322.000,5.000,0
"07/04/06","19:02:26","AMMA06",55826.000,"cc",28338.949,6.00,2833.895,1,6,0.100,25519.000,0.200,26539.000,0.300,2842.000,0.500,574.000,1.000,352.000,5.000,0
"07/04/06","19:02:32","AMMA06",55884.000,"cc",28305.152,6.00,2830.515,1,6,0.100,25908.000,0.200,26468.000,0.300,2587.000,0.500,571.000,1.000,350.000,5.000,0
"07/04/06","19:02:38","AMMA06",55908.000,"cc",28341.256,6.00,2834.126,1,6,0.100,26165.000,0.200,26151.000,0.300,2687.000,0.500,566.000,1.000,338.000,5.000,1.000
"07/04/06","19:02:44","AMMA06",55568.000,"cc",28368.641,6.00,2836.864,1,6,0.100,25853.000,0.200,26190.000,0.300,2706.000,0.500,514.000,1.000,305.000,5.000,0
"07/04/06","19:02:50","AMMA06",55603.000,"cc",28301.104,6.00,2830.111,1,6,0.100,25894.000,0.200,26152.000,0.300,2661.000,0.500,543.000,1.000,352.000,5.000,1.000
"07/04/06","19:02:56","AMMA06",55843.000,"cc",28244.881,6.00,2824.488,1,6,0.100,26171.000,0.200,26211.000,0.300,2637.000,0.500,491.000,1.000,333.000,5.000,0
"07/04/06","19:03:02","AMMA06",55681.000,"cc",28358.115,6.00,2835.812,1,6,0.100,26232.000,0.200,26021.000,0.300,2593.000,0.500,536.000,1.000,299.000,5.000,0
"07/04/06","19:03:08","AMMA06",55465.000,"cc",28357.949,6.00,2835.795,1,6,0.100,26071.000,0.200,25904.000,0.300,2634.000,0.500,536.000,1.000,319.000,5.000,1.000
"07/04/06","19:03:14","AMMA06",55643.000,"cc",28288.436,6.00,2828.844,1,6,0.100,25932.000,0.200,26293.000,0.300,2522.000,0.500,559.000,1.000,337.000,5.000,0
"07/04/06","19:03:20","AMMA06",55039.000,"cc",28328.906,6.00,2832.891,1,6,0.100,25719.000,0.200,25881.000,0.300,2556.000,0.500,545.000,1.000,338.000,5.000,0
"07/04/06","19:03:26","AMMA06",55233.000,"cc",28242.315,6.00,2824.232,1,6,0.100,25825.000,0.200,25917.000,0.300,2597.000,0.500,549.000,1.000,345.000,5.000,0
"07/04/06","19:03:32","AMMA06",55559.000,"cc",28358.309,6.00,2835.831,1,6,0.100,26064.000,0.200,25970.000,0.300,2653.000,0.500,556.000,1.000,316.000,5.000,0
"07/04/06","19:03:38","AMMA06",55276.000,"cc",28324.555,6.00,2832.456,1,6,0.100,25757.000,0.200,26123.000,0.300,2552.000,0.500,514.000,1.000,330.000,5.000,0
"07/04/06","19:03:44","AMMA06",55303.000,"cc",28311.367,6.00,2831.137,1,6,0.100,25941.000,0.200,25847.000,0.300,2608.000,0.500,554.000,1.000,353.000,5.000,0
"07/04/06","19:03:50","AMMA06",55295.000,"cc",28284.840,6.00,2828.484,1,6,0.100,25810.000,0.200,26031.000,0.300,2591.000,0.500,541.000,1.000,322.000,5.000,0
"07/04/06","19:03:56","AMMA06",55105.000,"cc",28352.504,6.00,2835.251,1,6,0.100,25569.000,0.200,26020.000,0.300,2630.000,0.500,560.000,1.000,326.000,5.000,0
"07/04/06","19:04:02","AMMA06",55431.000,"cc",28292.383,6.00,2829.239,1,6,0.100,25894.000,0.200,26147.000,0.300,2528.000,0.500,486.000,1.000,374.000,5.000,2.000
"07/04/06","19:04:08","AMMA06",55143.000,"cc",28371.219,6.00,2837.122,1,6,0.100,25821.000,0.200,25914.000,0.300,2545.000,0.500,535.000,1.000,328.000,5.000,0
"07/04/06","19:04:14","AMMA06",54851.000,"cc",28316.471,6.00,2831.647,1,6,0.100,25619.000,0.200,25737.000,0.300,2542.000,0.500,601.000,1.000,352.000,5.000,0
"07/04/06","19:04:20","AMMA06",55302.000,"cc",28275.416,6.00,2827.542,1,6,0.100,25890.000,0.200,25876.000,0.300,2695.000,0.500,527.000,1.000,314.000,5.000,0
"07/04/06","19:04:26","AMMA06",55311.000,"cc",28348.152,6.00,2834.815,1,6,0.100,25832.000,0.200,26075.000,0.300,2522.000,0.500,560.000,1.000,322.000,5.000,0
"07/04/06","19:04:32","AMMA06",55025.000,"cc",28339.332,6.00,2833.933,1,6,0.100,25791.000,0.200,25734.000,0.300,2650.000,0.500,528.000,1.000,322.000,5.000,0
"07/04/06","19:04:38","AMMA06",55090.000,"cc",28325.045,6.00,2832.505,1,6,0.100,25580.000,0.200,26019.000,0.300,2573.000,0.500,567.000,1.000,351.000,5.000,0
"07/04/06","19:04:44","AMMA06",55114.000,"cc",28256.156,6.00,2825.616,1,6,0.100,25890.000,0.200,25833.000,0.300,2575.000,0.500,486.000,1.000,330.000,5.000,0
"07/04/06","19:04:50","AMMA06",54817.000,"cc",28330.270,6.00,2833.027,1,6,0.100,25581.000,0.200,25605.000,0.300,2740.000,0.500,534.000,1.000,357.000,5.000,0
"07/04/06","19:04:56","AMMA06",55458.000,"cc",28339.574,6.00,2833.958,1,6,0.100,25774.000,0.200,26121.000,0.300,2665.000,0.500,546.000,1.000,351.000,5.000,1.000
"07/04/06","19:05:02","AMMA06",54939.000,"cc",28302.594,6.00,2830.260,1,6,0.100,25163.000,0.200,26132.000,0.300,2706.000,0.500,583.000,1.000,355.000,5.000,0
"07/04/06","19:05:08","AMMA06",55000.000,"cc",28285.086,6.00,2828.509,1,6,0.100,25459.000,0.200,25984.000,0.300,2634.000,0.500,563.000,1.000,360.000,5.000,0
"07/04/06","19:05:14","AMMA06",55119.000,"cc",28264.908,6.00,2826.491,1,6,0.100,25406.000,0.200,26207.000,0.300,2648.000,0.500,504.000,1.000,354.000,5.000,0
"07/04/06","19:05:20","AMMA06",55083.000,"cc",28322.955,6.00,2832.296,1,6,0.100,25464.000,0.200,26070.000,0.300,2663.000,0.500,554.000,1.000,332.000,5.000,0
"07/04/06","19:05:26","AMMA06",54951.000,"cc",28358.492,6.00,2835.849,1,6,0.100,25538.000,0.200,25911.000,0.300,2610.000,0.500,530.000,1.000,362.000,5.000,0
"07/04/06","19:05:32","AMMA06",55161.000,"cc",28337.059,6.00,2833.706,1,6,0.100,25630.000,0.200,26033.000,0.300,2642.000,0.500,537.000,1.000,319.000,5.000,0
"07/04/06","19:05:38","AMMA06",55330.000,"cc",28331.088,6.00,2833.109,1,6,0.100,25604.000,0.200,26081.000,0.300,2721.000,0.500,569.000,1.000,355.000,5.000,0
"07/04/06","19:05:44","AMMA06",55168.000,"cc",28324.088,6.00,2832.409,1,6,0.100,25680.000,0.200,25934.000,0.300,2669.000,0.500,533.000,1.000,352.000,5.000,0
"07/04/06","19:05:50","AMMA06",55123.000,"cc",28277.098,6.00,2827.710,1,6,0.100,25788.000,0.200,25799.000,0.300,2632.000,0.500,572.000,1.000,332.000,5.000,0
"07/04/06","19:05:56","AMMA06",54732.000,"cc",28328.182,6.00,2832.818,1,6,0.100,25443.000,0.200,25844.000,0.300,2583.000,0.500,526.000,1.000,336.000,5.000,0
"07/04/06","19:06:02","AMMA06",55126.000,"cc",28287.154,6.00,2828.716,1,6,0.100,25451.000,0.200,26194.000,0.300,2584.000,0.500,595.000,1.000,302.000,5.000,0
"07/04/06","19:06:08","AMMA06",55032.000,"cc",28273.006,6.00,2827.301,1,6,0.100,25719.000,0.200,25861.000,0.300,2528.000,0.500,572.000,1.000,352.000,5.000,0
"07/04/06","19:06:14","AMMA06",55403.000,"cc",28342.221,6.00,2834.222,1,6,0.100,25367.000,0.200,26490.000,0.300,2688.000,0.500,520.000,1.000,338.000,5.000,0
"07/04/06","19:06:20","AMMA06",55216.000,"cc",28333.949,6.00,2833.395,1,6,0.100,25520.000,0.200,26183.000,0.300,2656.000,0.500,538.000,1.000,319.000,5.000,0
"07/04/06","19:06:26","AMMA06",55216.000,"cc",28383.199,6.00,2838.320,1,6,0.100,25450.000,0.200,26208.000,0.300,2620.000,0.500,573.000,1.000,365.000,5.000,0
"07/04/06","19:06:32","AMMA06",55164.000,"cc",28361.607,6.00,2836.161,1,6,0.100,25497.000,0.200,26262.000,0.300,2544.000,0.500,515.000,1.000,346.000,5.000,0
"07/04/06","19:06:38","AMMA06",54682.000,"cc",28278.672,6.00,2827.867,1,6,0.100,25363.000,0.200,25793.000,0.300,2638.000,0.500,545.000,1.000,343.000,5.000,0
"07/04/06","19:06:44","AMMA06",54883.000,"cc",28279.799,6.00,2827.980,1,6,0.100,25250.000,0.200,26028.000,0.300,2691.000,0.500,548.000,1.000,366.000,5.000,0
"07/04/06","19:06:50","AMMA06",54649.000,"cc",28327.252,6.00,2832.725,1,6,0.100,25299.000,0.200,25856.000,0.300,2652.000,0.500,527.000,1.000,315.000,5.000,0
"07/04/06","19:06:56","AMMA06",54784.000,"cc",28360.736,6.00,2836.074,1,6,0.100,25224.000,0.200,25933.000,0.300,2688.000,0.500,560.000,1.000,378.000,5.000,1.000
"07/04/06","19:07:02","AMMA06",54687.000,"cc",28349.111,6.00,2834.911,1,6,0.100,25282.000,0.200,25828.000,0.300,2695.000,0.500,533.000,1.000,349.000,5.000,0
"07/04/06","19:07:08","AMMA06",55124.000,"cc",28278.416,6.00,2827.842,1,6,0.100,25299.000,0.200,26182.000,0.300,2706.000,0.500,556.000,1.000,381.000,5.000,0
"07/04/06","19:07:14","AMMA06",55283.000,"cc",28322.758,6.00,2832.276,1,6,0.100,25343.000,0.200,26251.000,0.300,2778.000,0.500,575.000,1.000,336.000,5.000,0
"07/04/06","19:07:20","AMMA06",54749.000,"cc",28309.150,6.00,2830.915,1,6,0.100,25073.000,0.200,26007.000,0.300,2746.000,0.500,554.000,1.000,367.000,5.000,2.000
"07/04/06","19:07:26","AMMA06",55215.000,"cc",28294.147,6.00,2829.415,1,6,0.100,25309.000,0.200,26275.000,0.300,2717.000,0.500,558.000,1.000,355.000,5.000,1.000
"07/04/06","19:07:32","AMMA06",54953.000,"cc",28341.373,6.00,2834.138,1,6,0.100,25457.000,0.200,25936.000,0.300,2691.000,0.500,557.000,1.000,312.000,5.000,0
"07/04/06","19:07:38","AMMA06",54796.000,"cc",28333.012,6.00,2833.301,1,6,0.100,25395.000,0.200,25803.000,0.300,2695.000,0.500,542.000,1.000,361.000,5.000,0
"07/04/06","19:07:44","AMMA06",54850.000,"cc",28334.080,6.00,2833.408,1,6,0.100,25155.000,0.200,26097.000,0.300,2682.000,0.500,562.000,1.000,354.000,5.000,0
"07/04/06","19:07:50","AMMA06",54707.000,"cc",28277.369,6.00,2827.737,1,6,0.100,25242.000,0.200,25895.000,0.300,2680.000,0.500,557.000,1.000,333.000,5.000,0
"07/04/06","19:07:56","AMMA06",54626.000,"cc",28291.090,6.00,2829.109,1,6,0.100,25201.000,0.200,25916.000,0.300,2662.000,0.500,499.000,1.000,347.000,5.000,1.000
"07/04/06","19:08:02","AMMA06",55162.000,"cc",28311.432,6.00,2831.143,1,6,0.100,25610.000,0.200,25982.000,0.300,2703.000,0.500,561.000,1.000,306.000,5.000,0
"07/04/06","19:08:08","AMMA06",55013.000,"cc",28343.531,6.00,2834.353,1,6,0.100,25445.000,0.200,26028.000,0.300,2645.000,0.500,549.000,1.000,346.000,5.000,0
"07/04/06","19:08:14","AMMA06",54496.000,"cc",28320.750,6.00,2832.075,1,6,0.100,25210.000,0.200,25769.000,0.300,2687.000,0.500,494.000,1.000,335.000,5.000,1.000
"07/04/06","19:08:20","AMMA06",55257.000,"cc",28287.895,6.00,2828.790,1,6,0.100,25566.000,0.200,26160.000,0.300,2688.000,0.500,512.000,1.000,331.000,5.000,0
"07/04/06","19:08:26","AMMA06",54996.000,"cc",28313.412,6.00,2831.341,1,6,0.100,25473.000,0.200,25973.000,0.300,2637.000,0.500,561.000,1.000,351.000,5.000,1.000
"07/04/06","19:08:32","AMMA06",55260.000,"cc",28315.459,6.00,2831.546,1,6,0.100,25464.000,0.200,26304.000,0.300,2646.000,0.500,536.000,1.000,310.000,5.000,0
"07/04/06","19:08:38","AMMA06",55062.000,"cc",28346.492,6.00,2834.649,1,6,0.100,25583.000,0.200,25944.000,0.300,2649.000,0.500,552.000,1.000,334.000,5.000,0
"07/04/06","19:08:44","AMMA06",55277.000,"cc",28355.986,6.00,2835.599,1,6,0.100,25383.000,0.200,26275.000,0.300,2726.000,0.500,571.000,1.000,321.000,5.000,1.000
"07/04/06","19:08:50","AMMA06",54816.000,"cc",28289.652,6.00,2828.965,1,6,0.100,25345.000,0.200,25889.000,0.300,2683.000,0.500,553.000,1.000,346.000,5.000,0
"07/04/06","19:08:56","AMMA06",54851.000,"cc",28292.145,6.00,2829.215,1,6,0.100,25229.000,0.200,26070.000,0.300,2682.000,0.500,531.000,1.000,339.000,5.000,0
"07/04/06","19:09:02","AMMA06",55161.000,"cc",28312.758,6.00,2831.276,1,6,0.100,25326.000,0.200,26315.000,0.300,2656.000,0.500,533.000,1.000,330.000,5.000,1.000
"07/04/06","19:09:08","AMMA06",55384.000,"cc",28345.113,6.00,2834.512,1,6,0.100,25736.000,0.200,26140.000,0.300,2669.000,0.500,517.000,1.000,322.000,5.000,0
"07/04/06","19:09:14","AMMA06",56940.000,"cc",28303.248,6.00,2830.325,1,6,0.100,27153.000,0.200,26218.000,0.300,2620.000,0.500,585.000,1.000,363.000,5.000,1.000
"07/04/06","19:09:20","AMMA06",57301.000,"cc",28295.449,6.00,2829.545,1,6,0.100,27327.000,0.200,26357.000,0.300,2692.000,0.500,589.000,1.000,336.000,5.000,0
"07/04/06","19:09:26","AMMA06",62695.000,"cc",28270.322,6.00,2827.033,1,6,0.100,32500.000,0.200,26572.000,0.300,2744.000,0.500,508.000,1.000,371.000,5.000,0
"07/04/06","19:09:32","AMMA06",60903.000,"cc",28290.877,6.00,2829.088,1,6,0.100,30666.000,0.200,26618.000,0.300,2766.000,0.500,517.000,1.000,336.000,5.000,0
"07/04/06","19:09:38","AMMA06",57694.000,"cc",28311.840,6.00,2831.184,1,6,0.100,27495.000,0.200,26500.000,0.300,2782.000,0.500,556.000,1.000,361.000,5.000,0
"07/04/06","19:09:44","AMMA06",58084.000,"cc",28326.250,6.00,2832.625,1,6,0.100,27807.000,0.200,26593.000,0.300,2770.000,0.500,561.000,1.000,353.000,5.000,0
"07/04/06","19:09:50","AMMA06",55573.000,"cc",28376.912,6.00,2837.691,1,6,0.100,25573.000,0.200,26309.000,0.300,2792.000,0.500,551.000,1.000,348.000,5.000,0
"07/04/06","19:09:56","AMMA06",54877.000,"cc",28325.391,6.00,2832.539,1,6,0.100,24813.000,0.200,26250.000,0.300,2840.000,0.500,613.000,1.000,361.000,5.000,0
"07/04/06","19:10:02","AMMA06",55481.000,"cc",28285.316,6.00,2828.532,1,6,0.100,25361.000,0.200,26286.000,0.300,2903.000,0.500,574.000,1.000,357.000,5.000,0
"07/04/06","19:10:08","AMMA06",54756.000,"cc",28279.303,6.00,2827.930,1,6,0.100,24851.000,0.200,26134.000,0.300,2780.000,0.500,606.000,1.000,385.000,5.000,0
"07/04/06","19:10:14","AMMA06",54744.000,"cc",28339.477,6.00,2833.948,1,6,0.100,24674.000,0.200,26297.000,0.300,2838.000,0.500,596.000,1.000,338.000,5.000,1.000
"07/04/06","19:10:20","AMMA06",55410.000,"cc",28385.479,6.00,2838.548,1,6,0.100,25166.000,0.200,26459.000,0.300,2800.000,0.500,580.000,1.000,404.000,5.000,1.000
"07/04/06","19:10:26","AMMA06",55154.000,"cc",28343.795,6.00,2834.380,1,6,0.100,25046.000,0.200,26301.000,0.300,2868.000,0.500,572.000,1.000,367.000,5.000,0
"07/04/06","19:10:32","AMMA06",55198.000,"cc",28350.211,6.00,2835.021,1,6,0.100,24970.000,0.200,26395.000,0.300,2819.000,0.500,605.000,1.000,409.000,5.000,0
"07/04/06","19:10:38","AMMA06",55094.000,"cc",28323.975,6.00,2832.398,1,6,0.100,25156.000,0.200,26249.000,0.300,2750.000,0.500,581.000,1.000,358.000,5.000,0
"07/04/06","19:10:44","AMMA06",55308.000,"cc",28278.793,6.00,2827.879,1,6,0.100,25064.000,0.200,26521.000,0.300,2848.000,0.500,518.000,1.000,357.000,5.000,0
"07/04/06","19:10:50","AMMA06",55319.000,"cc",28304.424,6.00,2830.443,1,6,0.100,25206.000,0.200,26386.000,0.300,2805.000,0.500,568.000,1.000,354.000,5.000,0
"07/04/06","19:10:56","AMMA06",55110.000,"cc",28290.621,6.00,2829.062,1,6,0.100,25231.000,0.200,26158.000,0.300,2787.000,0.500,585.000,1.000,349.000,5.000,0
"07/04/06","19:11:02","AMMA06",55312.000,"cc",28230.990,6.00,2823.099,1,6,0.100,25046.000,0.200,26479.000,0.300,2839.000,0.500,562.000,1.000,386.000,5.000,0
"07/04/06","19:11:08","AMMA06",55307.000,"cc",28316.709,6.00,2831.671,1,6,0.100,25426.000,0.200,26122.000,0.300,2798.000,0.500,576.000,1.000,385.000,5.000,0
"07/04/06","19:11:14","AMMA06",55094.000,"cc",28326.070,6.00,2832.607,1,6,0.100,25179.000,0.200,26101.000,0.300,2799.000,0.500,622.000,1.000,392.000,5.000,1.000
"07/04/06","19:11:20","AMMA06",55006.000,"cc",28349.813,6.00,2834.981,1,6,0.100,25466.000,0.200,25955.000,0.300,2687.000,0.500,556.000,1.000,342.000,5.000,0
"07/04/06","19:11:26","AMMA06",54961.000,"cc",28310.410,6.00,2831.041,1,6,0.100,25272.000,0.200,25909.000,0.300,2828.000,0.500,546.000,1.000,406.000,5.000,0
"07/04/06","19:11:32","AMMA06",54810.000,"cc",28367.791,6.00,2836.779,1,6,0.100,25291.000,0.200,25841.000,0.300,2755.000,0.500,542.000,1.000,381.000,5.000,0
"07/04/06","19:11:38","AMMA06",54731.000,"cc",28295.547,6.00,2829.555,1,6,0.100,25054.000,0.200,25970.000,0.300,2744.000,0.500,563.000,1.000,400.000,5.000,0
"07/04/06","19:11:44","AMMA06",55232.000,"cc",28285.609,6.00,2828.561,1,6,0.100,25370.000,0.200,26154.000,0.300,2792.000,0.500,560.000,1.000,355.000,5.000,1.000
"07/04/06","19:11:50","AMMA06",54949.000,"cc",28359.090,6.00,2835.909,1,6,0.100,25302.000,0.200,25984.000,0.300,2713.000,0.500,584.000,1.000,366.000,5.000,0
"07/04/06","19:11:56","AMMA06",55380.000,"cc",28343.529,6.00,2834.353,1,6,0.100,25459.000,0.200,26152.000,0.300,2803.000,0.500,571.000,1.000,395.000,5.000,0
"07/04/06","19:12:02","AMMA06",54817.000,"cc",28295.613,6.00,2829.562,1,6,0.100,25131.000,0.200,25940.000,0.300,2782.000,0.500,582.000,1.000,382.000,5.000,0
"07/04/06","19:12:08","AMMA06",54785.000,"cc",28336.715,6.00,2833.672,1,6,0.100,25029.000,0.200,25978.000,0.300,2813.000,0.500,586.000,1.000,379.000,5.000,0
"07/04/06","19:12:14","AMMA06",54419.000,"cc",28246.586,6.00,2824.659,1,6,0.100,25011.000,0.200,25664.000,0.300,2804.000,0.500,586.000,1.000,354.000,5.000,0
"07/04/06","19:12:20","AMMA06",54883.000,"cc",28340.223,6.00,2834.023,1,6,0.100,25249.000,0.200,25893.000,0.300,2815.000,0.500,558.000,1.000,367.000,5.000,1.000
"07/04/06","19:12:26","AMMA06",55120.000,"cc",28309.584,6.00,2830.959,1,6,0.100,25406.000,0.200,26030.000,0.300,2735.000,0.500,573.000,1.000,376.000,5.000,0
"07/04/06","19:12:32","AMMA06",55147.000,"cc",28354.922,6.00,2835.492,1,6,0.100,25289.000,0.200,26140.000,0.300,2765.000,0.500,581.000,1.000,372.000,5.000,0
"07/04/06","19:12:38","AMMA06",54957.000,"cc",28273.184,6.00,2827.319,1,6,0.100,25195.000,0.200,26028.000,0.300,2801.000,0.500,562.000,1.000,370.000,5.000,1.000
"07/04/06","19:12:44","AMMA06",55183.000,"cc",28338.219,6.00,2833.822,1,6,0.100,25292.000,0.200,26115.000,0.300,2785.000,0.500,606.000,1.000,384.000,5.000,1.000
"07/04/06","19:12:50","AMMA06",55526.000,"cc",28295.838,6.00,2829.584,1,6,0.100,25439.000,0.200,26290.000,0.300,2855.000,0.500,579.000,1.000,363.000,5.000,0
"07/04/06","19:12:56","AMMA06",54969.000,"cc",28309.988,6.00,2830.999,1,6,0.100,24957.000,0.200,26247.000,0.300,2900.000,0.500,512.000,1.000,353.000,5.000,0
"07/04/06","19:13:02","AMMA06",54815.000,"cc",28356.504,6.00,2835.651,1,6,0.100,24712.000,0.200,26179.000,0.300,2929.000,0.500,628.000,1.000,367.000,5.000,0
"07/04/06","19:13:08","AMMA06",55292.000,"cc",28319.990,6.00,2831.999,1,6,0.100,25179.000,0.200,26342.000,0.300,2814.000,0.500,595.000,1.000,362.000,5.000,0
"07/04/06","19:13:14","AMMA06",54989.000,"cc",28359.022,6.00,2835.902,1,6,0.100,24869.000,0.200,26292.000,0.300,2915.000,0.500,541.000,1.000,371.000,5.000,1.000
"07/04/06","19:13:20","AMMA06",55110.000,"cc",28310.281,6.00,2831.028,1,6,0.100,24980.000,0.200,26254.000,0.300,2941.000,0.500,585.000,1.000,349.000,5.000,1.000
"07/04/06","19:13:26","AMMA06",54917.000,"cc",28301.895,6.00,2830.190,1,6,0.100,24879.000,0.200,26108.000,0.300,2947.000,0.500,589.000,1.000,394.000,5.000,0
"07/04/06","19:13:32","AMMA06",54924.000,"cc",28355.303,6.00,2835.531,1,6,0.100,24694.000,0.200,26325.000,0.300,2933.000,0.500,554.000,1.000,418.000,5.000,0
"07/04/06","19:13:38","AMMA06",55593.000,"cc",28302.529,6.00,2830.253,1,6,0.100,25271.000,0.200,26317.000,0.300,3028.000,0.500,590.000,1.000,387.000,5.000,0
"07/04/06","19:13:44","AMMA06",54919.000,"cc",28356.719,6.00,2835.672,1,6,0.100,24865.000,0.200,26194.000,0.300,2908.000,0.500,586.000,1.000,366.000,5.000,0
"07/04/06","19:13:50","AMMA06",54836.000,"cc",28296.049,6.00,2829.605,1,6,0.100,25078.000,0.200,25974.000,0.300,2841.000,0.500,542.000,1.000,401.000,5.000,0
"07/04/06","19:13:56","AMMA06",54763.000,"cc",28250.113,6.00,2825.012,1,6,0.100,24807.000,0.200,26154.000,0.300,2892.000,0.500,573.000,1.000,337.000,5.000,0
"07/04/06","19:14:02","AMMA06",54938.000,"cc",28323.471,6.00,2832.347,1,6,0.100,25002.000,0.200,25950.000,0.300,2956.000,0.500,636.000,1.000,393.000,5.000,1.000
"07/04/06","19:14:08","AMMA06",54628.000,"cc",28361.693,6.00,2836.169,1,6,0.100,24887.000,0.200,25833.000,0.300,2930.000,0.500,585.000,1.000,393.000,5.000,0